Regional Weather Roundup
Issued by NWS

Home | Current Version | Previous Version | Graphics & Text | Print | Product List | Glossary On
Versions: 1 2 3 4 5 6 7 8 9 10 11 12 13 14 15 16 17 18 19 20 21 22 23 24 25 26 27 28 29 30 31 32 33 34 35 36 37 38 39 40 41 42 43 44 45 46 47 48 49 50
315
ASUS43 KLOT 260003
RWRIL

ILLINOIS REGIONAL WEATHER ROUNDUP
NATIONAL WEATHER SERVICE CHICAGO/ROMEOVILLE IL
600 PM CST SAT FEB 25 2017

NOTE: "FAIR" INDICATES FEW OR NO CLOUDS BELOW 12,000 FEET WITH NO
SIGNIFICANT WEATHER AND/OR OBSTRUCTIONS TO VISIBILITY.

* THESE STATIONS ARE NOT UNDER NWS QUALITY CONTROL. THEY ALSO MAY NOT
  REPORT WEATHER SUCH AS PRECIPITATION OR FOG.

ILZ001-002-007-009-015-016-024-260100-
NORTHWEST ILLINOIS

CITY           SKY/WX    TMP DP  RH WIND       PRES   REMARKS
MOLINE         CLOUDY    30  16  56 W12       30.04R WCI  20
6HR MIN TEMP:  27; 6HR MAX TEMP:  33;

STERLING*      CLEAR     26  17  68 W10       30.01R WCI  16
$$

ILZ003-004-008-010-011-017-018-260100-
NORTH CENTRAL ILLINOIS

CITY           SKY/WX    TMP DP  RH WIND       PRES   REMARKS
ROCKFORD       MOCLDY    25  13  60 W9        30.00R WCI  15
6HR MIN TEMP:  24; 6HR MAX TEMP:  28; 6HR PCP: TRACE;

FREEPORT*      CLEAR     24  14  64 NW14      29.99S WCI  12
ROCHELLE*      CLEAR     26  14  62 NW12      30.00R WCI  15
DE KALB*       CLEAR     25  15  67 NW10      29.98R WCI  14
PERU*          CLEAR     27  15  60 W10       30.02R WCI  17
$$

ILZ005-006-012>014-019>023-260100-
NORTHEAST ILLINOIS

CITY           SKY/WX    TMP DP  RH WIND       PRES   REMARKS
CHICAGO-OHARE  MOCLDY    27  14  58 W8        29.96R WCI  19
6HR MIN TEMP:  25; 6HR MAX TEMP:  27; 6HR PCP: TRACE;

CHICAGO-MIDWAY MOCLDY    26  13  57 W14       29.98R WCI  14
6HR MIN TEMP:  25; 6HR MAX TEMP:  29; 6HR PCP: TRACE;

AURORA         CLEAR     26  16  65 W13       29.99R WCI  15
6HR MIN TEMP:  25; 6HR MAX TEMP:  29;

LANSING*       CLOUDY    27  18  67 W10G16    29.98R WCI  17
JOLIET*        MOCLDY    29  18  62 W9        30.00R WCI  20
WAUKEGAN       PTCLDY    24  13  62 W8G17     29.95R WCI  15
6HR MIN TEMP:  21; 6HR MAX TEMP:  25; 6HR PCP: TRACE;

DUPAGE AIRPORT PTCLDY    25  13  60 W12       29.97R WCI  14
6HR MIN TEMP:  24; 6HR MAX TEMP:  27; 6HR PCP: TRACE;

KANKAKEE*      MOCLDY    28  16  61 W9G17     30.01R WCI  19
WHEELING       CLOUDY    25  13  60 W10       29.98R WCI  15
6HR MIN TEMP:  23; 6HR MAX TEMP:  26; 6HR PCP: TRACE;

MORRIS*        CLEAR     27  17  64 NW13      29.99R WCI  16
ROMEOVILLE*    PTCLDY    26  19  73 NW9       29.99R WCI  17
NORTHERLY ISL    N/A     27  15  61 W14         N/A  WCI  16
$$

LMZ740>746-260100-
SOUTHERN LAKE MICHIGAN

STATION/POSITION SKY/WX   TEMP    WIND        PRES    VSBY  WAVE
                          AIR SEA DIR/SP/G                  HT/PER
                          (F)     (DEG/KT/KT) (MB)    (MI)  (FT/S)
HARRISON CRIB              27     300/ 22/ 23   N/A
BURNHAM HARBOR             27     280/ 11/ 18   N/A
CALUMET HARBOR             26     280/ 11/ 16 1014.2R
BURNS HARBOR               27     300/ 15/ 20 1015.2R
MICHIGAN CITY              26     260/ 22/ 23   N/A
$$

ILZ025>027-034>036-040-047-049-050-058-095>099-260100-
WEST-CENTRAL ILLINOIS

CITY           SKY/WX    TMP DP  RH WIND       PRES   REMARKS
QUINCY         PTCLDY    32  14  47 W7        30.09R WCI  26
GALESBURG*     CLOUDY    28  20  70 W7        30.05R WCI  21
MACOMB*        CLOUDY    31  17  57 NW8       30.09R WCI  23
JACKSONVILLE*  CLOUDY    31  13  47 W9        30.09R WCI  23
PITTSFIELD*    CLEAR     34  13  42 W3        30.11R
$$

ILZ028>032-037-038-041>044-048-051>054-059>061-260100-
CENTRAL ILLINOIS

CITY           SKY/WX    TMP DP  RH WIND       PRES   REMARKS
PONTIAC        CLEAR     29  17  61 W14       30.03R WCI  19
BLOOMINGTON    CLOUDY    27  17  66 W14       30.03R WCI  16
DECATUR        MOCLDY    31  12  45 NW15G22   30.06R WCI  20
PEORIA         PTCLDY    30  15  53 NW7       30.05R WCI  23
6HR MIN TEMP:  26; 6HR MAX TEMP:  32;

LACON*         PTCLDY    29  17  59 W7        30.04R WCI  22
LINCOLN*       PTCLDY    32  15  49 W5        30.06S WCI  27
SPRINGFIELD    CLEAR     33  11  39 W9        30.08R WCI  25
6HR MIN TEMP:  33; 6HR MAX TEMP:  37;

TAYLORVILLE    CLEAR     32  13  45 W7        30.08R WCI  25
6HR MIN TEMP:  31; 6HR MAX TEMP:  36;

$$

ILZ033-039-045-046-055>057-062-063-260100-
EAST-CENTRAL ILLINOIS

CITY           SKY/WX    TMP DP  RH WIND       PRES   REMARKS
CHAMPAIGN      PTCLDY    30  13  49 W15       30.04R WCI  19
RANTOUL*       CLEAR     30  19  63 W12       30.02S WCI  21
MATTOON        CLEAR     31  15  52 W15       30.05R WCI  20
PARIS*         CLEAR     31  16  54 W16       30.05R WCI  20
$$

ILZ079-100>102-260100-
SOUTHWEST ILLINOIS

CITY           SKY/WX    TMP DP  RH WIND       PRES   REMARKS
ALTON          PTCLDY    34  10  37 NW14      30.11R WCI  24
BELLEVILLE     CLEAR     35  11  36 NW8       30.10R WCI  29
CAHOKIA*       PTCLDY    37  10  32 NW12      30.11S WCI  29
SPARTA*        CLEAR     37  12  36 W5        30.11S WCI  33
$$

ILZ064>066-069>071-074>076-080>082-084>086-088>090-092>094-260100-
SOUTH-CENTRAL ILLINOIS

CITY           SKY/WX    TMP DP  RH WIND       PRES   REMARKS
CARBONDALE     CLEAR     37  15  40 NW8       30.10S WCI  31
6HR MIN TEMP:  36; 6HR MAX TEMP:  42;

CAIRO*         CLEAR     40  16  37 NW5       30.11S
EFFINGHAM*     CLEAR    N/A N/A N/A W9        30.09S
MARION         CLEAR     39  12  33 NW12      30.11S WCI  32
MT. VERNON     CLEAR     36  14  40 VRB5      30.10S WCI  32
CENTRALIA*     CLEAR     35  18  49 W9        30.09S WCI  28
SALEM*         CLEAR     36  16  43 W8        30.09S WCI  29
METROPOLIS*    CLEAR     39  15  37 CALM      30.11S
$$

ILZ067-068-072-073-078-083-087-091-260100-
SOUTHEAST ILLINOIS

CITY           SKY/WX    TMP DP  RH WIND       PRES   REMARKS
LAWRENCEVILLE  CLEAR     34  18  52 W12       30.09R WCI  25
FLORA*         CLEAR     37  17  44 W9        30.09R WCI  30
FAIRFIELD*     CLEAR     36  17  46 W3        30.10R
HARRISBURG*    CLEAR     37  18  45 NW7       30.11R WCI  32
ROBINSON*      CLEAR     32  18  57 W9        30.09R WCI  24
CARMI*         CLEAR     34  18  52 W8        30.10R WCI  27
$$

ABBREVIATIONS USED IN REMARKS
   TC - TEMPERATURE IN CELSIUS
  WCI - WIND CHILL INDEX
   HX - HEAT INDEX
  VSB - VISIBILITY
$$





USA.gov is the U.S. government's official web portal to all federal, state and local government web resources and services.